DECAYED

STARLINK-33633, 63382 (Decayed)

Orbit data source: Space-Track

STARLINK-33633, 63382 was a payload satellite owned by SpaceX/Seattle (US) in LEO that was launched on Wed, 26 Mar 2025 UTC via an FALCON 9 launch vehicle from the Air Force Western Test Range (AFWTR). Payload-class satellites include a variety of spacecraft equipped with specific instruments for various scientific and technological missions. These include communications satellites like Starlink; space stations such as the ISS; scientific satellites like the Hubble; Earth observation satellites from companies like Planet Labs, Umbra, and HawkEye 360; GPS; miniature CubeSats for education and research; and military/defense satellites.

Not visible in the next 10 days
Identifier
63382, 2025-063V
Orbit
Decayed
Country
Flag of USUS
Related business
Manufacturer
SpaceX/Seattle
Mission
Decayed Commercial Communications
Bus & Motor
STARLINK V2MO, Unknown motor
Mass
575 kg wet, ~530 kg dry
Launch date (UTC)
2025-03-26 (1 year ago)
Launch vehicle
FALCON 9
Launch site
Air Force Western Test Range (AFWTR)
Object type
Payload
Rocket body
Debris
Shape & HBR
Box + 2 Pan, 17.7 m
Radar Cross Section
36.964 m², Large (>1 m²)

Expand to show TLE details & history
Last TLE update: 2 months ago

TLE from 2 months ago
0 STARLINK-33633
1 63382U 25063V   26116.59236909  .10548154  12170-4  11448-2 0  9990
2 63382  53.1314 158.1721 0005585 163.3093 196.8139 16.36556304 62480
Epoch: 2026-04-26T14:13Z
TLE epoch observation values (Epoch: 2026-04-26T14:13:00.689Z)
Latitude
0.00006°
Longitude
90.3251°
Altitude
179.42 km
Speed
7.798 km/s
True Right ascension
10h 32m 41s
True Declination
0° 00' 00"
Sunlit
Object was in full shadow at epoch
Visualization orbit readout
Latitude
Unknown
Longitude
Unknown
Altitude
Unknown
Speed
Unknown
Apparent Right ascension
Unknown
Apparent Declination
Unknown
Sunlit
N/A
Visualization observer readout
Local Sidereal Time
07:16:57
Azimuth
Unknown
Elevation
Unknown
Doppler factor
Unknown
Orbital elements
Apogee altitude
178.912 km
Perigee altitude
171.592 km
Semi-major axis
6,553.389 km
Eccentricity
0.00056
Inclination
53.1314°
RAAN
158.1721°
Arg. of periapsis
163.3093°
True anomaly
196.7954°
Mean anomaly
196.8139°
Eccentric anomaly
196.80465°
Mean motion
4.09114 °/min
Orbital period
88 mins
BSTAR
0.0011448
Loading maneuver chart data...
Computing Atmospheric mass density...
Loading historical data...
Loading historical data...
Loading historical data...
Loading historical data...
Loading historical data...
Loading historical data...
Loading historical data...

Documentation

Showing up to 5 results
|